Location: Chiroubles
(46.1812°N, 4.6660°E)
Time: 04:13:01
(UTC+00:00)

Tiros 1 - Pass Details

Date: 02 December 2020
Orbit: 630 x 663 km, 48.4° (Epoch: 16 January)

Event Time Altitude Azimuth Distance (km) Brightness Sun altitude
Rises 18:09:50 0° 287° (WNW) 2,993 11.6 -22.3°
Reaches altitude 10° 18:12:12 10° 287° (WNW) 2,076 10.6 -22.7°
Maximum altitude 18:17:00 82° 201° (SSW) 667 7.1 -23.5°
Enters shadow 18:17:31 69° 134° (SE) 700 7.1 -23.6°
